Time,TemperatureF,DewpointF,PressureIn,WindDirection,WindDirectionDegrees,WindSpeedMPH,WindSpeedGustMPH,Humidity,HourlyPrecipIn,Conditions,Clouds,dailyrainin,SoftwareType,DateUTC
2013-06-24 00:01:00,72.4,68.3,29.94,North,0,0.0,0.0,87,0.00,,,0.00,WUHU216HW,2013-06-24 04:01:00,
2013-06-24 00:02:00,72.2,68.1,29.94,North,0,0.0,0.0,87,0.00,,,0.00,WUHU216HW,2013-06-24 04:02:00,
2013-06-24 00:07:00,72.0,68.0,29.94,North,0,0.0,0.0,87,0.00,,,0.00,WUHU216HW,2013-06-24 04:07:00,
2013-06-24 00:12:00,71.8,67.8,29.94,North,0,0.0,0.0,87,0.00,,,0.00,WUHU216HW,2013-06-24 04:12:00,
2013-06-24 00:17:00,71.6,67.9,29.94,North,0,0.0,0.0,88,0.00,,,0.00,WUHU216HW,2013-06-24 04:17:00,
2013-06-24 00:22:00,71.6,67.9,29.94,North,0,0.0,0.0,88,0.00,,,0.00,WUHU216HW,2013-06-24 04:22:00,
2013-06-24 00:27:00,71.5,67.7,29.94,North,0,0.0,0.0,88,0.00,,,0.00,WUHU216HW,2013-06-24 04:27:00,
2013-06-24 00:32:00,71.5,68.0,29.94,North,0,0.0,0.0,89,0.00,,,0.00,WUHU216HW,2013-06-24 04:32:00,
2013-06-24 00:37:00,71.3,67.9,29.94,North,0,0.0,0.0,89,0.00,,,0.00,WUHU216HW,2013-06-24 04:37:00,
2013-06-24 00:42:00,71.3,67.9,29.94,North,0,0.0,0.0,89,0.00,,,0.00,WUHU216HW,2013-06-24 04:42:00,
2013-06-24 00:47:00,71.3,68.2,29.94,North,0,0.0,0.0,90,0.00,,,0.00,WUHU216HW,2013-06-24 04:47:00,
2013-06-24 00:52:00,71.3,68.2,29.94,North,0,0.0,0.0,90,0.00,,,0.00,WUHU216HW,2013-06-24 04:52:00,
2013-06-24 00:57:00,71.3,68.2,29.94,North,0,0.0,0.0,90,0.00,,,0.00,WUHU216HW,2013-06-24 04:57:00,
2013-06-24 01:02:00,71.3,68.5,29.94,North,0,0.0,0.0,91,0.00,,,0.00,WUHU216HW,2013-06-24 05:02:00,
2013-06-24 01:07:00,71.3,68.2,29.94,North,0,0.0,0.0,90,0.00,,,0.00,WUHU216HW,2013-06-24 05:07:00,
2013-06-24 01:12:00,71.3,68.5,29.94,North,0,0.0,0.0,91,0.00,,,0.00,WUHU216HW,2013-06-24 05:12:00,
2013-06-24 01:16:00,71.3,68.5,29.95,North,0,0.0,0.0,91,0.00,,,0.00,WUHU216HW,2013-06-24 05:16:00,
2013-06-24 01:21:00,71.3,68.5,29.94,North,0,0.0,0.0,91,0.00,,,0.00,WUHU216HW,2013-06-24 05:21:00,
2013-06-24 01:27:00,71.3,68.5,29.94,North,0,0.0,0.0,91,0.00,,,0.00,WUHU216HW,2013-06-24 05:27:00,
2013-06-24 01:32:00,71.3,68.5,29.94,North,0,0.0,0.0,91,0.00,,,0.00,WUHU216HW,2013-06-24 05:32:00,
2013-06-24 01:37:00,71.3,68.5,29.94,North,0,0.0,0.0,91,0.00,,,0.00,WUHU216HW,2013-06-24 05:37:00,
2013-06-24 01:42:00,71.1,68.3,29.94,North,0,0.0,0.0,91,0.00,,,0.00,WUHU216HW,2013-06-24 05:42:00,
2013-06-24 01:47:00,71.1,68.3,29.94,North,0,0.0,0.0,91,0.00,,,0.00,WUHU216HW,2013-06-24 05:47:00,
2013-06-24 01:52:00,70.9,68.1,29.94,North,0,0.0,0.0,91,0.00,,,0.00,WUHU216HW,2013-06-24 05:52:00,
2013-06-24 01:57:00,70.9,68.1,29.94,North,0,0.0,0.0,91,0.00,,,0.00,WUHU216HW,2013-06-24 05:57:00,
2013-06-24 02:03:00,70.7,68.0,29.94,North,0,0.0,0.0,91,0.00,,,0.00,WUHU216HW,2013-06-24 06:03:00,
2013-06-24 02:08:00,70.7,68.0,29.94,North,0,0.0,0.0,91,0.00,,,0.00,WUHU216HW,2013-06-24 06:08:00,
2013-06-24 02:13:00,70.9,68.1,29.94,North,0,0.0,0.0,91,0.00,,,0.00,WUHU216HW,2013-06-24 06:13:00,
2013-06-24 02:18:00,70.9,68.1,29.94,North,0,0.0,0.0,91,0.00,,,0.00,WUHU216HW,2013-06-24 06:18:00,
2013-06-24 02:23:00,70.9,68.5,29.93,North,0,0.0,0.0,92,0.00,,,0.00,WUHU216HW,2013-06-24 06:23:00,
2013-06-24 02:28:00,70.9,68.5,29.93,North,0,0.0,0.0,92,0.00,,,0.00,WUHU216HW,2013-06-24 06:28:00,
2013-06-24 02:33:00,70.9,68.5,29.93,North,0,0.0,0.0,92,0.00,,,0.00,WUHU216HW,2013-06-24 06:33:00,
2013-06-24 02:38:00,70.9,68.5,29.93,North,0,0.0,0.0,92,0.00,,,0.00,WUHU216HW,2013-06-24 06:38:00,
2013-06-24 02:44:00,70.9,68.5,29.93,North,0,0.0,0.0,92,0.00,,,0.00,WUHU216HW,2013-06-24 06:44:00,
2013-06-24 02:49:00,70.9,68.8,29.93,North,0,0.0,0.0,93,0.00,,,0.00,WUHU216HW,2013-06-24 06:49:00,
2013-06-24 02:54:00,71.1,68.9,29.93,North,0,0.0,0.0,93,0.00,,,0.00,WUHU216HW,2013-06-24 06:54:00,
2013-06-24 02:59:00,71.1,68.9,29.93,North,0,0.0,0.0,93,0.00,,,0.00,WUHU216HW,2013-06-24 06:59:00,
2013-06-24 03:04:00,71.1,68.9,29.93,North,0,0.0,0.0,93,0.00,,,0.00,WUHU216HW,2013-06-24 07:04:00,
2013-06-24 03:09:00,71.1,68.9,29.93,North,0,0.0,0.0,93,0.00,,,0.00,WUHU216HW,2013-06-24 07:09:00,
2013-06-24 03:14:00,71.1,68.9,29.93,North,0,0.0,0.0,93,0.00,,,0.00,WUHU216HW,2013-06-24 07:14:00,
2013-06-24 03:19:00,71.1,68.9,29.93,North,0,0.0,0.0,93,0.00,,,0.00,WUHU216HW,2013-06-24 07:19:00,
2013-06-24 03:25:00,71.3,69.1,29.92,North,0,0.0,0.0,93,0.00,,,0.00,WUHU216HW,2013-06-24 07:25:00,
2013-06-24 03:30:00,71.3,69.1,29.92,North,0,0.0,0.0,93,0.00,,,0.00,WUHU216HW,2013-06-24 07:30:00,
2013-06-24 03:35:00,71.3,69.1,29.92,North,0,0.0,0.0,93,0.00,,,0.00,WUHU216HW,2013-06-24 07:35:00,
2013-06-24 03:40:00,71.3,69.1,29.92,North,0,0.0,0.0,93,0.00,,,0.00,WUHU216HW,2013-06-24 07:40:00,
2013-06-24 03:46:00,71.1,68.9,29.92,North,0,0.0,0.0,93,0.00,,,0.00,WUHU216HW,2013-06-24 07:46:00,
2013-06-24 03:51:00,71.1,68.9,29.93,North,0,0.0,0.0,93,0.00,,,0.00,WUHU216HW,2013-06-24 07:51:00,
2013-06-24 03:56:00,71.1,68.9,29.93,North,0,0.0,0.0,93,0.00,,,0.00,WUHU216HW,2013-06-24 07:56:00,
2013-06-24 04:01:00,71.1,68.9,29.92,North,0,0.0,0.0,93,0.00,,,0.00,WUHU216HW,2013-06-24 08:01:00,
2013-06-24 04:07:00,71.1,68.9,29.92,North,0,0.0,0.0,93,0.00,,,0.00,WUHU216HW,2013-06-24 08:07:00,
2013-06-24 04:12:00,71.1,68.9,29.92,North,0,0.0,0.0,93,0.00,,,0.00,WUHU216HW,2013-06-24 08:12:00,
2013-06-24 04:17:00,70.9,68.8,29.92,North,0,0.0,0.0,93,0.00,,,0.00,WUHU216HW,2013-06-24 08:17:00,
2013-06-24 04:22:00,70.9,68.8,29.92,North,0,0.0,0.0,93,0.00,,,0.00,WUHU216HW,2013-06-24 08:22:00,
2013-06-24 04:27:00,70.9,68.8,29.92,North,0,0.0,0.0,93,0.00,,,0.00,WUHU216HW,2013-06-24 08:27:00,
2013-06-24 04:32:00,70.9,68.8,29.92,North,0,0.0,0.0,93,0.00,,,0.00,WUHU216HW,2013-06-24 08:32:00,
2013-06-24 04:37:00,70.9,68.8,29.93,North,0,0.0,0.0,93,0.00,,,0.00,WUHU216HW,2013-06-24 08:37:00,
2013-06-24 04:42:00,70.7,68.6,29.93,North,0,0.0,0.0,93,0.00,,,0.00,WUHU216HW,2013-06-24 08:42:00,
2013-06-24 04:48:00,70.7,68.6,29.93,North,0,0.0,0.0,93,0.00,,,0.00,WUHU216HW,2013-06-24 08:48:00,
2013-06-24 04:53:00,70.7,68.6,29.93,North,0,0.0,0.0,93,0.00,,,0.00,WUHU216HW,2013-06-24 08:53:00,
2013-06-24 04:58:00,70.6,68.4,29.93,North,0,0.0,0.0,93,0.00,,,0.00,WUHU216HW,2013-06-24 08:58:00,
2013-06-24 05:03:00,70.6,68.4,29.93,North,0,0.0,0.0,93,0.00,,,0.00,WUHU216HW,2013-06-24 09:03:00,
2013-06-24 05:08:00,70.6,68.4,29.93,North,0,0.0,0.0,93,0.00,,,0.00,WUHU216HW,2013-06-24 09:08:00,
2013-06-24 05:13:00,70.4,68.2,29.93,North,0,0.0,0.0,93,0.00,,,0.00,WUHU216HW,2013-06-24 09:13:00,
2013-06-24 05:18:00,70.6,68.4,29.93,North,0,0.0,0.0,93,0.00,,,0.00,WUHU216HW,2013-06-24 09:18:00,
2013-06-24 05:24:00,70.6,68.4,29.93,North,0,0.0,0.0,93,0.00,,,0.00,WUHU216HW,2013-06-24 09:24:00,
2013-06-24 05:29:00,70.6,68.4,29.93,North,0,0.0,0.0,93,0.00,,,0.00,WUHU216HW,2013-06-24 09:29:00,
2013-06-24 05:34:00,70.6,68.4,29.92,North,0,0.0,0.0,93,0.00,,,0.00,WUHU216HW,2013-06-24 09:34:00,
2013-06-24 05:39:00,70.6,68.4,29.93,North,0,0.0,0.0,93,0.00,,,0.00,WUHU216HW,2013-06-24 09:39:00,
2013-06-24 05:44:00,70.6,68.4,29.93,North,0,0.0,0.0,93,0.00,,,0.00,WUHU216HW,2013-06-24 09:44:00,
2013-06-24 05:50:00,70.6,68.4,29.93,North,0,0.0,0.0,93,0.00,,,0.00,WUHU216HW,2013-06-24 09:50:00,
2013-06-24 05:55:00,70.7,68.6,29.93,North,0,0.0,0.0,93,0.00,,,0.00,WUHU216HW,2013-06-24 09:55:00,
2013-06-24 06:00:00,70.7,68.6,29.93,North,0,0.0,0.0,93,0.00,,,0.00,WUHU216HW,2013-06-24 10:00:00,
2013-06-24 06:05:00,70.7,68.6,29.93,North,0,0.0,0.0,93,0.00,,,0.00,WUHU216HW,2013-06-24 10:05:00,
2013-06-24 06:10:00,70.9,69.1,29.93,North,0,0.0,0.0,94,0.00,,,0.00,WUHU216HW,2013-06-24 10:10:00,
2013-06-24 06:15:00,70.9,69.1,29.93,North,0,0.0,0.0,94,0.00,,,0.00,WUHU216HW,2013-06-24 10:15:00,
2013-06-24 06:21:00,70.9,69.1,29.93,North,0,0.0,0.0,94,0.00,,,0.00,WUHU216HW,2013-06-24 10:21:00,
2013-06-24 06:26:00,70.9,68.8,29.93,North,0,0.0,0.0,93,0.00,,,0.00,WUHU216HW,2013-06-24 10:26:00,
2013-06-24 06:31:00,71.3,69.5,29.93,North,0,0.0,0.0,94,0.00,,,0.00,WUHU216HW,2013-06-24 10:31:00,
2013-06-24 06:36:00,71.5,69.3,29.94,North,0,0.0,0.0,93,0.00,,,0.00,WUHU216HW,2013-06-24 10:36:00,
2013-06-24 06:41:00,71.6,69.5,29.93,North,0,0.0,0.0,93,0.00,,,0.00,WUHU216HW,2013-06-24 10:41:00,
2013-06-24 06:47:00,72.2,70.0,29.94,North,0,0.0,0.0,93,0.00,,,0.00,WUHU216HW,2013-06-24 10:47:00,
2013-06-24 06:52:00,72.7,70.6,29.94,North,0,0.0,0.0,93,0.00,,,0.00,WUHU216HW,2013-06-24 10:52:00,
2013-06-24 06:57:00,73.1,70.9,29.94,North,0,0.0,0.0,93,0.00,,,0.00,WUHU216HW,2013-06-24 10:57:00,
2013-06-24 07:02:00,73.4,71.7,29.94,North,0,0.0,0.0,94,0.00,,,0.00,WUHU216HW,2013-06-24 11:02:00,
2013-06-24 07:07:00,74.2,72.0,29.94,North,0,0.0,0.0,93,0.00,,,0.00,WUHU216HW,2013-06-24 11:07:00,
2013-06-24 07:12:00,75.2,72.8,29.93,North,0,0.0,0.0,92,0.00,,,0.00,WUHU216HW,2013-06-24 11:12:00,
2013-06-24 07:17:00,77.0,74.0,29.93,North,0,0.0,0.0,90,0.00,,,0.00,WUHU216HW,2013-06-24 11:17:00,
2013-06-24 07:23:00,78.5,74.0,29.94,North,0,0.0,0.0,86,0.00,,,0.00,WUHU216HW,2013-06-24 11:23:00,
2013-06-24 07:28:00,79.9,73.6,29.94,North,0,0.0,0.0,81,0.00,,,0.00,WUHU216HW,2013-06-24 11:28:00,
2013-06-24 07:33:00,80.6,73.6,29.94,North,0,0.0,0.0,79,0.00,,,0.00,WUHU216HW,2013-06-24 11:33:00,
2013-06-24 07:38:00,81.4,73.9,29.94,North,0,0.0,0.0,78,0.00,,,0.00,WUHU216HW,2013-06-24 11:38:00,
2013-06-24 07:43:00,82.1,74.6,29.94,North,0,0.0,0.0,78,0.00,,,0.00,WUHU216HW,2013-06-24 11:43:00,
2013-06-24 07:48:00,82.6,73.9,29.94,North,0,0.0,0.0,75,0.00,,,0.00,WUHU216HW,2013-06-24 11:48:00,
2013-06-24 07:53:00,83.3,75.0,29.94,North,0,0.0,0.0,76,0.00,,,0.00,WUHU216HW,2013-06-24 11:53:00,
2013-06-24 07:58:00,83.5,73.9,29.94,North,0,0.0,0.0,73,0.00,,,0.00,WUHU216HW,2013-06-24 11:58:00,
2013-06-24 08:03:00,83.9,73.9,29.94,North,0,0.0,0.0,72,0.00,,,0.00,WUHU216HW,2013-06-24 12:03:00,
2013-06-24 08:09:00,84.4,74.0,29.94,North,0,0.0,0.0,71,0.00,,,0.00,WUHU216HW,2013-06-24 12:09:00,
2013-06-24 08:14:00,84.8,74.0,29.94,North,0,0.0,0.0,70,0.00,,,0.00,WUHU216HW,2013-06-24 12:14:00,
2013-06-24 08:19:00,83.9,73.4,29.94,North,0,0.0,0.0,71,0.00,,,0.00,WUHU216HW,2013-06-24 12:19:00,
2013-06-24 08:24:00,82.6,73.1,29.94,North,0,0.0,0.0,73,0.00,,,0.00,WUHU216HW,2013-06-24 12:24:00,
2013-06-24 08:29:00,81.9,72.4,29.94,North,0,0.0,0.0,73,0.00,,,0.00,WUHU216HW,2013-06-24 12:29:00,
2013-06-24 08:34:00,81.9,73.2,29.94,North,0,0.0,0.0,75,0.00,,,0.00,WUHU216HW,2013-06-24 12:34:00,
2013-06-24 08:39:00,82.1,73.4,29.94,North,0,0.0,0.0,75,0.00,,,0.00,WUHU216HW,2013-06-24 12:39:00,
2013-06-24 08:45:00,82.6,73.4,29.94,North,0,0.0,0.0,74,0.00,,,0.00,WUHU216HW,2013-06-24 12:45:00,
2013-06-24 08:50:00,83.0,73.8,29.94,North,0,0.0,0.0,74,0.00,,,0.00,WUHU216HW,2013-06-24 12:50:00,
2013-06-24 08:55:00,83.2,73.2,29.94,North,0,0.0,0.0,72,0.00,,,0.00,WUHU216HW,2013-06-24 12:55:00,
2013-06-24 09:00:00,83.3,73.4,29.95,North,0,0.0,0.0,72,0.00,,,0.00,WUHU216HW,2013-06-24 13:00:00,
2013-06-24 09:05:00,83.5,73.5,29.95,North,0,0.0,0.0,72,0.00,,,0.00,WUHU216HW,2013-06-24 13:05:00,
2013-06-24 09:10:00,83.5,72.3,29.95,North,0,0.0,0.0,69,0.00,,,0.00,WUHU216HW,2013-06-24 13:10:00,
2013-06-24 09:15:00,83.7,72.9,29.95,North,0,0.0,0.0,70,0.00,,,0.00,WUHU216HW,2013-06-24 13:15:00,
2013-06-24 09:20:00,83.7,72.5,29.94,North,0,0.0,0.0,69,0.00,,,0.00,WUHU216HW,2013-06-24 13:20:00,
2013-06-24 09:26:00,83.9,73.1,29.94,North,0,0.0,0.0,70,0.00,,,0.00,WUHU216HW,2013-06-24 13:26:00,
2013-06-24 09:31:00,84.4,73.6,29.94,North,0,0.0,0.0,70,0.00,,,0.00,WUHU216HW,2013-06-24 13:31:00,
2013-06-24 09:36:00,85.1,73.5,29.94,North,0,0.0,0.0,68,0.00,,,0.00,WUHU216HW,2013-06-24 13:36:00,
2013-06-24 09:41:00,85.3,72.7,29.94,North,0,0.0,0.0,66,0.00,,,0.00,WUHU216HW,2013-06-24 13:41:00,
2013-06-24 09:46:00,85.5,72.8,29.94,North,0,0.0,0.0,66,0.00,,,0.00,WUHU216HW,2013-06-24 13:46:00,
2013-06-24 09:51:00,85.7,73.0,29.94,North,0,0.0,0.0,66,0.00,,,0.00,WUHU216HW,2013-06-24 13:51:00,
2013-06-24 09:56:00,86.0,73.4,29.94,North,0,0.0,0.0,66,0.00,,,0.00,WUHU216HW,2013-06-24 13:56:00,
2013-06-24 10:01:00,86.0,72.9,29.94,North,0,0.0,0.0,65,0.00,,,0.00,WUHU216HW,2013-06-24 14:01:00,
2013-06-24 10:07:00,86.0,72.5,29.94,North,0,0.0,0.0,64,0.00,,,0.00,WUHU216HW,2013-06-24 14:07:00,
2013-06-24 10:12:00,86.4,72.3,29.94,North,0,0.0,0.0,63,0.00,,,0.00,WUHU216HW,2013-06-24 14:12:00,
2013-06-24 10:17:00,86.8,72.6,29.94,North,0,0.0,0.0,63,0.00,,,0.00,WUHU216HW,2013-06-24 14:17:00,
2013-06-24 10:22:00,86.8,72.6,29.94,North,0,0.0,0.0,63,0.00,,,0.00,WUHU216HW,2013-06-24 14:22:00,
2013-06-24 10:27:00,87.1,73.0,29.93,North,0,0.0,0.0,63,0.00,,,0.00,WUHU216HW,2013-06-24 14:27:00,
2013-06-24 10:32:00,87.5,72.9,29.93,North,0,0.0,0.0,62,0.00,,,0.00,WUHU216HW,2013-06-24 14:32:00,
2013-06-24 10:37:00,87.8,72.4,29.94,North,0,0.0,0.0,60,0.00,,,0.00,WUHU216HW,2013-06-24 14:37:00,
2013-06-24 10:42:00,87.8,72.8,29.94,North,0,0.0,0.0,61,0.00,,,0.00,WUHU216HW,2013-06-24 14:42:00,
2013-06-24 10:47:00,87.8,71.8,29.93,North,0,0.0,0.0,59,0.00,,,0.00,WUHU216HW,2013-06-24 14:47:00,
2013-06-24 10:52:00,87.7,72.2,29.94,North,0,0.0,0.0,60,0.00,,,0.00,WUHU216HW,2013-06-24 14:52:00,
2013-06-24 10:58:00,87.8,71.8,29.93,North,0,0.0,0.0,59,0.00,,,0.00,WUHU216HW,2013-06-24 14:58:00,
2013-06-24 11:03:00,88.2,72.7,29.93,North,0,0.0,0.0,60,0.00,,,0.00,WUHU216HW,2013-06-24 15:03:00,
2013-06-24 11:08:00,88.2,71.7,29.93,North,0,0.0,0.0,58,0.00,,,0.00,WUHU216HW,2013-06-24 15:08:00,
2013-06-24 11:13:00,88.6,71.9,29.93,North,0,0.0,0.0,58,0.00,,,0.00,WUHU216HW,2013-06-24 15:13:00,
2013-06-24 11:18:00,88.9,72.3,29.93,North,0,0.0,0.0,58,0.00,,,0.00,WUHU216HW,2013-06-24 15:18:00,
2013-06-24 11:23:00,89.3,72.5,29.93,North,0,0.0,0.0,58,0.00,,,0.00,WUHU216HW,2013-06-24 15:23:00,
2013-06-24 11:28:00,89.5,72.2,29.93,North,0,0.0,0.0,57,0.00,,,0.00,WUHU216HW,2013-06-24 15:28:00,
2013-06-24 11:33:00,89.6,71.3,29.93,North,0,0.0,0.0,55,0.00,,,0.00,WUHU216HW,2013-06-24 15:33:00,
2013-06-24 11:38:00,89.6,71.3,29.93,North,0,0.0,0.0,55,0.00,,,0.00,WUHU216HW,2013-06-24 15:38:00,
2013-06-24 11:44:00,89.6,71.3,29.93,North,0,0.0,0.0,55,0.00,,,0.00,WUHU216HW,2013-06-24 15:44:00,
2013-06-24 11:49:00,89.8,70.9,29.93,North,0,0.0,0.0,54,0.00,,,0.00,WUHU216HW,2013-06-24 15:49:00,
2013-06-24 11:54:00,89.8,71.5,29.93,North,0,0.0,0.0,55,0.00,,,0.00,WUHU216HW,2013-06-24 15:54:00,
2013-06-24 11:59:00,90.0,71.1,29.93,North,0,0.0,0.0,54,0.00,,,0.00,WUHU216HW,2013-06-24 15:59:00,
2013-06-24 12:04:00,90.2,71.7,29.93,North,0,0.0,0.0,55,0.00,,,0.00,WUHU216HW,2013-06-24 16:04:00,
2013-06-24 12:09:00,90.9,70.8,29.93,North,0,0.0,0.0,52,0.00,,,0.00,WUHU216HW,2013-06-24 16:09:00,
2013-06-24 12:15:00,91.4,70.7,29.93,North,0,0.0,0.0,51,0.00,,,0.00,WUHU216HW,2013-06-24 16:15:00,
2013-06-24 12:20:00,91.3,69.4,29.93,North,0,0.0,0.0,49,0.00,,,0.00,WUHU216HW,2013-06-24 16:20:00,
2013-06-24 12:25:00,91.3,70.0,29.93,North,0,0.0,0.0,50,0.00,,,0.00,WUHU216HW,2013-06-24 16:25:00,
2013-06-24 12:30:00,91.1,69.8,29.93,North,0,0.0,0.0,50,0.00,,,0.00,WUHU216HW,2013-06-24 16:30:00,
2013-06-24 12:36:00,90.7,70.1,29.93,North,0,0.0,0.0,51,0.00,,,0.00,WUHU216HW,2013-06-24 16:36:00,
2013-06-24 12:41:00,90.7,69.6,29.92,North,0,0.0,0.0,50,0.00,,,0.00,WUHU216HW,2013-06-24 16:41:00,
2013-06-24 12:46:00,90.9,70.3,29.93,North,0,0.0,0.0,51,0.00,,,0.00,WUHU216HW,2013-06-24 16:46:00,
2013-06-24 12:51:00,90.9,70.3,29.93,North,0,0.0,0.0,51,0.00,,,0.00,WUHU216HW,2013-06-24 16:51:00,
2013-06-24 12:56:00,91.4,71.3,29.93,North,0,0.0,0.0,52,0.00,,,0.00,WUHU216HW,2013-06-24 16:56:00,
2013-06-24 13:01:00,91.8,71.1,29.93,North,0,0.0,0.0,51,0.00,,,0.00,WUHU216HW,2013-06-24 17:01:00,
2013-06-24 13:07:00,92.2,71.4,29.93,North,0,0.0,0.0,51,0.00,,,0.00,WUHU216HW,2013-06-24 17:07:00,
2013-06-24 13:12:00,92.3,71.0,29.92,North,0,0.0,0.0,50,0.00,,,0.00,WUHU216HW,2013-06-24 17:12:00,
2013-06-24 13:17:00,92.5,70.6,29.92,North,0,0.0,0.0,49,0.00,,,0.00,WUHU216HW,2013-06-24 17:17:00,
2013-06-24 13:22:00,92.9,71.5,29.92,North,0,0.0,0.0,50,0.00,,,0.00,WUHU216HW,2013-06-24 17:22:00,
2013-06-24 13:27:00,92.9,70.8,29.91,North,0,0.0,0.0,49,0.00,,,0.00,WUHU216HW,2013-06-24 17:27:00,
2013-06-24 13:32:00,92.9,69.6,29.91,North,0,0.0,0.0,47,0.00,,,0.00,WUHU216HW,2013-06-24 17:32:00,
2013-06-24 13:37:00,93.2,71.8,29.91,North,0,0.0,0.0,50,0.00,,,0.00,WUHU216HW,2013-06-24 17:37:00,
2013-06-24 13:42:00,93.2,70.6,29.90,North,0,0.0,0.0,48,0.00,,,0.00,WUHU216HW,2013-06-24 17:42:00,
2013-06-24 13:47:00,93.2,70.6,29.90,North,0,0.0,0.0,48,0.00,,,0.00,WUHU216HW,2013-06-24 17:47:00,
2013-06-24 13:52:00,93.2,70.6,29.90,North,0,0.0,0.0,48,0.00,,,0.00,WUHU216HW,2013-06-24 17:52:00,
2013-06-24 13:57:00,93.2,69.8,29.90,North,0,0.0,0.0,47,0.00,,,0.00,WUHU216HW,2013-06-24 17:57:00,
2013-06-24 14:03:00,93.4,70.0,29.89,North,0,0.0,0.0,47,0.00,,,0.00,WUHU216HW,2013-06-24 18:03:00,
2013-06-24 14:08:00,93.2,68.6,29.89,North,0,0.0,0.0,45,0.00,,,0.00,WUHU216HW,2013-06-24 18:08:00,
2013-06-24 14:13:00,93.4,69.4,29.88,North,0,0.0,0.0,46,0.00,,,0.00,WUHU216HW,2013-06-24 18:13:00,
2013-06-24 14:18:00,94.0,69.9,29.88,North,0,0.0,0.0,46,0.00,,,0.00,WUHU216HW,2013-06-24 18:18:00,
2013-06-24 14:23:00,94.1,69.5,29.87,North,0,0.0,0.0,45,0.00,,,0.00,WUHU216HW,2013-06-24 18:23:00,
2013-06-24 14:28:00,94.5,69.1,29.87,North,0,0.0,0.0,44,0.00,,,0.00,WUHU216HW,2013-06-24 18:28:00,
2013-06-24 14:34:00,94.5,69.8,29.86,North,0,0.0,0.0,45,0.00,,,0.00,WUHU216HW,2013-06-24 18:34:00,
2013-06-24 14:39:00,94.0,68.6,29.86,North,0,0.0,0.0,44,0.00,,,0.00,WUHU216HW,2013-06-24 18:39:00,
2013-06-24 14:44:00,93.2,69.2,29.86,North,0,0.0,0.0,46,0.00,,,0.00,WUHU216HW,2013-06-24 18:44:00,
2013-06-24 14:49:00,92.3,68.4,29.86,North,0,0.0,0.0,46,0.00,,,0.00,WUHU216HW,2013-06-24 18:49:00,
2013-06-24 14:54:00,92.0,68.8,29.87,North,0,0.0,0.0,47,0.00,,,0.00,WUHU216HW,2013-06-24 18:54:00,
2013-06-24 14:59:00,91.4,69.6,29.86,North,0,0.0,0.0,49,0.00,,,0.00,WUHU216HW,2013-06-24 18:59:00,
2013-06-24 15:04:00,90.9,69.0,29.87,North,0,0.0,0.0,49,0.00,,,0.00,WUHU216HW,2013-06-24 19:04:00,
2013-06-24 15:09:00,90.4,69.2,29.87,North,0,0.0,0.0,50,0.00,,,0.00,WUHU216HW,2013-06-24 19:09:00,
2013-06-24 15:15:00,89.8,69.9,29.87,North,0,0.0,0.0,52,0.00,,,0.00,WUHU216HW,2013-06-24 19:15:00,
2013-06-24 15:20:00,89.3,69.8,29.87,North,0,0.0,0.0,53,0.00,,,0.00,WUHU216HW,2013-06-24 19:20:00,
2013-06-24 15:25:00,88.7,69.9,29.87,North,0,0.0,0.0,54,0.00,,,0.00,WUHU216HW,2013-06-24 19:25:00,
2013-06-24 15:30:00,88.2,69.5,29.87,North,0,0.0,0.0,54,0.00,,,0.00,WUHU216HW,2013-06-24 19:30:00,
2013-06-24 15:35:00,88.0,69.9,29.87,North,0,0.0,0.0,55,0.00,,,0.00,WUHU216HW,2013-06-24 19:35:00,
2013-06-24 15:40:00,87.5,69.8,29.87,North,0,0.0,0.0,56,0.00,,,0.00,WUHU216HW,2013-06-24 19:40:00,
2013-06-24 15:45:00,87.1,69.5,29.87,North,0,0.0,0.0,56,0.00,,,0.00,WUHU216HW,2013-06-24 19:45:00,
2013-06-24 15:50:00,86.9,69.8,29.87,North,0,0.0,0.0,57,0.00,,,0.00,WUHU216HW,2013-06-24 19:50:00,
2013-06-24 15:56:00,86.8,70.2,29.87,North,0,0.0,0.0,58,0.00,,,0.00,WUHU216HW,2013-06-24 19:56:00,
2013-06-24 16:01:00,86.8,70.7,29.87,North,0,0.0,0.0,59,0.00,,,0.00,WUHU216HW,2013-06-24 20:01:00,
2013-06-24 16:06:00,86.6,70.6,29.87,North,0,0.0,0.0,59,0.00,,,0.00,WUHU216HW,2013-06-24 20:06:00,
2013-06-24 16:11:00,86.6,71.1,29.86,North,0,0.0,0.0,60,0.00,,,0.00,WUHU216HW,2013-06-24 20:11:00,
2013-06-24 16:17:00,86.8,71.7,29.86,North,0,0.0,0.0,61,0.00,,,0.00,WUHU216HW,2013-06-24 20:17:00,
2013-06-24 16:22:00,86.8,71.7,29.87,North,0,0.0,0.0,61,0.00,,,0.00,WUHU216HW,2013-06-24 20:22:00,
2013-06-24 16:27:00,87.5,72.5,29.87,North,0,0.0,0.0,61,0.00,,,0.00,WUHU216HW,2013-06-24 20:27:00,
2013-06-24 16:32:00,87.7,71.6,29.87,North,0,0.0,0.0,59,0.00,,,0.00,WUHU216HW,2013-06-24 20:32:00,
2013-06-24 16:37:00,88.0,72.0,29.86,North,0,0.0,0.0,59,0.00,,,0.00,WUHU216HW,2013-06-24 20:37:00,
2013-06-24 16:42:00,89.1,72.5,29.85,North,0,0.0,0.0,58,0.00,,,0.00,WUHU216HW,2013-06-24 20:42:00,
2013-06-24 16:47:00,89.3,71.5,29.85,North,0,0.0,0.0,56,0.00,,,0.00,WUHU216HW,2013-06-24 20:47:00,
2013-06-24 16:52:00,88.7,71.6,29.86,North,0,0.0,0.0,57,0.00,,,0.00,WUHU216HW,2013-06-24 20:52:00,
2013-06-24 16:57:00,89.3,72.5,29.86,North,0,0.0,0.0,58,0.00,,,0.00,WUHU216HW,2013-06-24 20:57:00,
2013-06-24 17:03:00,90.0,72.7,29.85,North,0,0.0,0.0,57,0.00,,,0.00,WUHU216HW,2013-06-24 21:03:00,
2013-06-24 17:08:00,90.7,73.4,29.84,North,0,0.0,0.0,57,0.00,,,0.00,WUHU216HW,2013-06-24 21:08:00,
2013-06-24 17:13:00,91.8,73.3,29.84,North,0,0.0,0.0,55,0.00,,,0.00,WUHU216HW,2013-06-24 21:13:00,
2013-06-24 17:18:00,92.7,73.0,29.84,North,0,0.0,0.0,53,0.00,,,0.00,WUHU216HW,2013-06-24 21:18:00,
2013-06-24 17:23:00,93.1,73.9,29.84,North,0,0.0,0.0,54,0.00,,,0.00,WUHU216HW,2013-06-24 21:23:00,
2013-06-24 17:28:00,94.5,74.2,29.83,North,0,0.0,0.0,52,0.00,,,0.00,WUHU216HW,2013-06-24 21:28:00,
2013-06-24 17:33:00,94.5,73.1,29.83,North,0,0.0,0.0,50,0.00,,,0.00,WUHU216HW,2013-06-24 21:33:00,
2013-06-24 17:38:00,93.6,72.2,29.84,North,0,0.0,0.0,50,0.00,,,0.00,WUHU216HW,2013-06-24 21:38:00,
2013-06-24 17:44:00,90.7,70.7,29.85,North,0,0.0,0.0,52,0.00,,,0.00,WUHU216HW,2013-06-24 21:44:00,
2013-06-24 17:48:00,88.7,70.5,29.85,North,0,0.0,0.0,55,0.00,,,0.00,WUHU216HW,2013-06-24 21:48:00,
2013-06-24 17:54:00,87.3,70.7,29.85,North,0,0.0,0.0,58,0.00,,,0.00,WUHU216HW,2013-06-24 21:54:00,
2013-06-24 17:59:00,86.0,70.6,29.86,North,0,0.0,0.0,60,0.00,,,0.00,WUHU216HW,2013-06-24 21:59:00,
2013-06-24 18:04:00,85.1,70.2,29.86,North,0,0.0,0.0,61,0.00,,,0.00,WUHU216HW,2013-06-24 22:04:00,
2013-06-24 18:09:00,84.6,69.8,29.86,North,0,0.0,0.0,61,0.00,,,0.00,WUHU216HW,2013-06-24 22:09:00,
2013-06-24 18:14:00,84.1,69.2,29.89,North,0,0.0,0.0,61,0.00,,,0.00,WUHU216HW,2013-06-24 22:14:00,
2013-06-24 18:19:00,82.6,62.7,29.90,North,0,0.0,0.0,51,0.00,,,0.00,WUHU216HW,2013-06-24 22:19:00,
2013-06-24 18:24:00,81.4,62.0,29.90,North,0,0.0,0.0,52,0.00,,,0.00,WUHU216HW,2013-06-24 22:24:00,
2013-06-24 18:29:00,80.3,59.4,29.89,North,0,0.0,0.0,49,0.00,,,0.00,WUHU216HW,2013-06-24 22:29:00,
2013-06-24 18:34:00,78.8,63.9,29.89,North,0,0.0,0.0,60,0.00,,,0.00,WUHU216HW,2013-06-24 22:34:00,
2013-06-24 18:39:00,74.2,63.8,29.90,North,0,0.0,0.0,70,0.00,,,0.00,WUHU216HW,2013-06-24 22:39:00,
2013-06-24 18:44:00,71.6,62.9,29.89,North,0,0.0,0.0,74,0.00,,,0.00,WUHU216HW,2013-06-24 22:44:00,
2013-06-24 18:49:00,70.4,62.7,29.87,North,0,0.0,0.0,77,0.00,,,0.00,WUHU216HW,2013-06-24 22:49:00,
2013-06-24 18:54:00,70.2,63.7,29.87,North,0,0.0,0.0,80,0.00,,,0.00,WUHU216HW,2013-06-24 22:54:00,
2013-06-24 19:00:00,69.8,63.7,29.87,North,0,0.0,0.0,81,0.00,,,0.00,WUHU216HW,2013-06-24 23:00:00,
2013-06-24 19:05:00,70.2,64.7,29.87,North,0,0.0,0.0,83,0.00,,,0.00,WUHU216HW,2013-06-24 23:05:00,
2013-06-24 19:10:00,70.9,65.8,29.87,North,0,0.0,0.0,84,0.00,,,0.00,WUHU216HW,2013-06-24 23:10:00,
2013-06-24 19:15:00,71.8,66.3,29.86,North,0,0.0,0.0,83,0.00,,,0.00,WUHU216HW,2013-06-24 23:15:00,
2013-06-24 19:20:00,72.4,66.6,29.85,North,0,0.0,0.0,82,0.00,,,0.00,WUHU216HW,2013-06-24 23:20:00,
2013-06-24 19:25:00,72.4,66.6,29.86,North,0,0.0,0.0,82,0.00,,,0.00,WUHU216HW,2013-06-24 23:25:00,
2013-06-24 19:30:00,72.2,66.4,29.86,North,0,0.0,0.0,82,0.00,,,0.00,WUHU216HW,2013-06-24 23:30:00,
2013-06-24 19:35:00,71.8,66.1,29.86,North,0,0.0,0.0,82,0.00,,,0.00,WUHU216HW,2013-06-24 23:35:00,
2013-06-24 19:40:00,71.6,65.9,29.85,North,0,0.0,0.0,82,0.00,,,0.00,WUHU216HW,2013-06-24 23:40:00,
2013-06-24 19:46:00,71.5,66.0,29.85,North,0,0.0,0.0,83,0.00,,,0.00,WUHU216HW,2013-06-24 23:46:00,
2013-06-24 19:51:00,71.1,65.6,29.85,North,0,0.0,0.0,83,0.00,,,0.00,WUHU216HW,2013-06-24 23:51:00,
2013-06-24 19:56:00,71.1,65.6,29.86,North,0,0.0,0.0,83,0.00,,,0.00,WUHU216HW,2013-06-24 23:56:00,
2013-06-24 20:02:00,70.9,65.4,29.86,North,0,0.0,0.0,83,0.00,,,0.00,WUHU216HW,2013-06-25 00:02:00,
2013-06-24 20:07:00,70.6,65.1,29.86,North,0,0.0,0.0,83,0.00,,,0.00,WUHU216HW,2013-06-25 00:07:00,
2013-06-24 20:12:00,70.2,65.4,29.87,North,0,0.0,0.0,85,0.00,,,0.00,WUHU216HW,2013-06-25 00:12:00,
2013-06-24 20:17:00,70.0,65.3,29.87,North,0,0.0,0.0,85,0.00,,,0.00,WUHU216HW,2013-06-25 00:17:00,
2013-06-24 20:22:00,70.0,65.3,29.87,North,0,0.0,0.0,85,0.00,,,0.00,WUHU216HW,2013-06-25 00:22:00,
2013-06-24 20:27:00,70.0,65.3,29.87,North,0,0.0,0.0,85,0.00,,,0.00,WUHU216HW,2013-06-25 00:27:00,
2013-06-24 20:33:00,69.8,65.4,29.87,North,0,0.0,0.0,86,0.00,,,0.00,WUHU216HW,2013-06-25 00:33:00,
2013-06-24 20:38:00,69.7,65.6,29.87,North,0,0.0,0.0,87,0.00,,,0.00,WUHU216HW,2013-06-25 00:38:00,
2013-06-24 20:43:00,69.5,65.1,29.86,North,0,0.0,0.0,86,0.00,,,0.00,WUHU216HW,2013-06-25 00:43:00,
2013-06-24 20:48:00,69.3,64.9,29.86,North,0,0.0,0.0,86,0.00,,,0.00,WUHU216HW,2013-06-25 00:48:00,
2013-06-24 20:53:00,69.3,64.9,29.86,North,0,0.0,0.0,86,0.00,,,0.00,WUHU216HW,2013-06-25 00:53:00,
2013-06-24 20:58:00,69.1,65.1,29.87,North,0,0.0,0.0,87,0.00,,,0.00,WUHU216HW,2013-06-25 00:58:00,
2013-06-24 21:03:00,69.1,65.4,29.87,North,0,0.0,0.0,88,0.00,,,0.00,WUHU216HW,2013-06-25 01:03:00,
2013-06-24 21:08:00,69.3,65.9,29.87,North,0,0.0,0.0,89,0.00,,,0.00,WUHU216HW,2013-06-25 01:08:00,
2013-06-24 21:13:00,69.3,65.9,29.87,North,0,0.0,0.0,89,0.00,,,0.00,WUHU216HW,2013-06-25 01:13:00,
2013-06-24 21:18:00,69.3,65.9,29.87,North,0,0.0,0.0,89,0.00,,,0.00,WUHU216HW,2013-06-25 01:18:00,
2013-06-24 21:23:00,69.3,65.6,29.87,North,0,0.0,0.0,88,0.00,,,0.00,WUHU216HW,2013-06-25 01:23:00,
2013-06-24 21:28:00,69.1,65.4,29.88,North,0,0.0,0.0,88,0.00,,,0.00,WUHU216HW,2013-06-25 01:28:00,
2013-06-24 21:34:00,68.9,65.3,29.88,North,0,0.0,0.0,88,0.00,,,0.00,WUHU216HW,2013-06-25 01:34:00,
2013-06-24 21:39:00,68.8,65.1,29.89,North,0,0.0,0.0,88,0.00,,,0.00,WUHU216HW,2013-06-25 01:39:00,
2013-06-24 21:44:00,68.8,65.1,29.89,North,0,0.0,0.0,88,0.00,,,0.00,WUHU216HW,2013-06-25 01:44:00,
2013-06-24 21:49:00,68.8,65.1,29.88,North,0,0.0,0.0,88,0.00,,,0.00,WUHU216HW,2013-06-25 01:49:00,
2013-06-24 21:54:00,68.8,65.1,29.88,North,0,0.0,0.0,88,0.00,,,0.00,WUHU216HW,2013-06-25 01:54:00,
2013-06-24 21:59:00,68.6,64.9,29.88,North,0,0.0,0.0,88,0.00,,,0.00,WUHU216HW,2013-06-25 01:59:00,
2013-06-24 22:05:00,68.6,64.9,29.88,North,0,0.0,0.0,88,0.00,,,0.00,WUHU216HW,2013-06-25 02:05:00,
2013-06-24 22:10:00,68.6,64.9,29.88,North,0,0.0,0.0,88,0.00,,,0.00,WUHU216HW,2013-06-25 02:10:00,
2013-06-24 22:15:00,68.6,65.2,29.88,North,0,0.0,0.0,89,0.00,,,0.00,WUHU216HW,2013-06-25 02:15:00,
2013-06-24 22:20:00,68.6,65.2,29.87,North,0,0.0,0.0,89,0.00,,,0.00,WUHU216HW,2013-06-25 02:20:00,
2013-06-24 22:25:00,68.4,64.7,29.87,North,0,0.0,0.0,88,0.00,,,0.00,WUHU216HW,2013-06-25 02:25:00,
2013-06-24 22:31:00,68.4,65.0,29.87,North,0,0.0,0.0,89,0.00,,,0.00,WUHU216HW,2013-06-25 02:31:00,
2013-06-24 22:37:00,68.4,65.0,29.87,North,0,0.0,0.0,89,0.00,,,0.00,WUHU216HW,2013-06-25 02:37:00,
2013-06-24 22:42:00,68.2,64.8,29.87,North,0,0.0,0.0,89,0.00,,,0.00,WUHU216HW,2013-06-25 02:42:00,
2013-06-24 22:47:00,68.2,64.8,29.87,North,0,0.0,0.0,89,0.00,,,0.00,WUHU216HW,2013-06-25 02:47:00,
2013-06-24 22:53:00,68.0,64.6,29.87,North,0,0.0,0.0,89,0.00,,,0.00,WUHU216HW,2013-06-25 02:53:00,
2013-06-24 22:58:00,68.0,64.6,29.87,North,0,0.0,0.0,89,0.00,,,0.00,WUHU216HW,2013-06-25 02:58:00,
2013-06-24 23:03:00,68.2,65.2,29.88,North,0,0.0,0.0,90,0.00,,,0.00,WUHU216HW,2013-06-25 03:03:00,
2013-06-24 23:08:00,68.2,65.2,29.88,North,0,0.0,0.0,90,0.00,,,0.00,WUHU216HW,2013-06-25 03:08:00,
2013-06-24 23:13:00,68.2,65.2,29.88,North,0,0.0,0.0,90,0.00,,,0.00,WUHU216HW,2013-06-25 03:13:00,
2013-06-24 23:18:00,68.2,65.2,29.87,North,0,0.0,0.0,90,0.00,,,0.00,WUHU216HW,2013-06-25 03:18:00,
2013-06-24 23:23:00,68.4,65.3,29.88,North,0,0.0,0.0,90,0.00,,,0.00,WUHU216HW,2013-06-25 03:23:00,
2013-06-24 23:29:00,68.2,65.2,29.88,North,0,0.0,0.0,90,0.00,,,0.00,WUHU216HW,2013-06-25 03:29:00,
2013-06-24 23:34:00,68.2,65.2,29.87,North,0,0.0,0.0,90,0.00,,,0.00,WUHU216HW,2013-06-25 03:34:00,
2013-06-24 23:39:00,68.0,65.0,29.88,North,0,0.0,0.0,90,0.00,,,0.00,WUHU216HW,2013-06-25 03:39:00,
2013-06-24 23:44:00,67.9,64.8,29.87,North,0,0.0,0.0,90,0.00,,,0.00,WUHU216HW,2013-06-25 03:44:00,
2013-06-24 23:49:00,67.9,64.8,29.87,North,0,0.0,0.0,90,0.00,,,0.00,WUHU216HW,2013-06-25 03:49:00,
2013-06-24 23:55:00,67.7,64.6,29.87,North,0,0.0,0.0,90,0.00,,,0.00,WUHU216HW,2013-06-25 03:55:00,